Weather History for KLEX - April, 2013

Change the Weather History Date:

Friday, April 19, 2013

  Actual Average Record
Temperature  
Mean Temperature 55 °F 56 °F  
Max Temperature 73 °F 67 °F 86 °F (1941)
Min Temperature 37 °F 46 °F 25 °F (1983)
Degree Days  
Heating Degree Days 10 9  
Month to date heating degree days 173 227  
Since 1 July heating degree days 4464 4403  
Cooling Degree Days 0 1  
Month to date cooling degree days 29 10  
Year to date cooling degree days 29 12  
Moisture  
Dew Point 42 °F    
Average Humidity 73    
Maximum Humidity 93    
Minimum Humidity 53    
Precipitation  
Precipitation 0.53 in 0.12 in 2.06 in (1901)
Month to date precipitation 3.08 2.15  
Year to date precipitation 14.41 12.62  
Snow  
Snow 0.00 in 0.00 in 2.00 in (1901)
Month to date snowfall 0.0 0.3  
Since 1 July snowfall 12.5 13.0  
Snow Depth 0.00 in    
Sea Level Pressure  
Sea Level Pressure 29.78 in    
Wind  
Wind Speed 16 mph (WSW)    
Max Wind Speed 37 mph    
Max Gust Speed 45 mph    
Visibility 9 miles    
Events Rain    
T = Trace of Precipitation, MM = Missing Value Source: NWS Daily Summary

Daily Weather History Graph

Daily Weather History Graph

Search for Another Location

Airport or City:

Trip Planner

Search our weather history database for the weather conditions in past years. The results will help you decide how hot, cold, wet, or windy it might be!

Date:

Astronomy

Apr. 19, 2013 Rise Set
Actual Time 6:57 AM EDT 8:18 PM EDT
Civil Twilight 6:29 AM EDT 8:45 PM EDT
Nautical Twilight 5:56 AM EDT 9:18 PM EDT
Astronomical Twilight 5:22 AM EDT 9:53 PM EDT
Moon 2:07 PM EDT (4/19) 3:06 AM EDT (4/19)
Length of Visible Light 14h 16m
Length of Day
13h 21m
First Quarter, 61% of the Moon is Illuminated
Apr 19
First Quarter
Apr 25
Full
May 2
Last Quarter
May 9
New
May 18
First Quarter

Hourly Weather History & Observations

Time (EDT) Temp. Windchill Dew Point Humidity Pressure Visibility Wind Dir Wind Speed Gust Speed Precip Events Conditions
12:54 AM 72.0 °F - 55.0 °F 55% 29.64 in 10.0 mi South 13.8 mph - N/A   Clear
1:54 AM 72.0 °F - 55.0 °F 55% 29.57 in 10.0 mi South 17.3 mph - N/A   Clear
2:54 AM 73.0 °F - 55.9 °F 55% 29.56 in 10.0 mi South 19.6 mph 25.3 mph N/A   Overcast
3:54 AM 68.0 °F - 60.1 °F 76% 29.53 in 6.0 mi South 17.3 mph 26.5 mph 0.04 in Rain Rain
4:54 AM 66.0 °F - 61.0 °F 84% 29.50 in 6.0 mi South 28.8 mph 41.4 mph 0.05 in Rain Rain
5:41 AM 64.4 °F - 62.6 °F 94% 29.56 in 2.0 mi WSW 24.2 mph 40.3 mph 0.16 in Rain Heavy Rain
5:54 AM 53.1 °F - 50.0 °F 89% 29.58 in 8.0 mi West 25.3 mph 44.9 mph 0.21 in Rain Light Rain
6:01 AM 51.8 °F - 48.2 °F 88% 29.60 in 9.0 mi West 17.3 mph 38.0 mph 0.01 in Rain Light Rain
6:25 AM 50.0 °F - 48.2 °F 94% 29.63 in 8.0 mi West 15.0 mph - 0.05 in Rain Light Rain
6:52 AM 48.2 °F - 44.6 °F 87% 29.67 in 8.0 mi West 16.1 mph 24.2 mph 0.12 in Rain Rain
6:54 AM 48.0 °F - 45.0 °F 89% 29.66 in 7.0 mi West 16.1 mph 24.2 mph 0.13 in Rain Rain
7:26 AM 46.4 °F 39.8 °F 44.6 °F 93% 29.70 in 4.0 mi West 16.1 mph 23.0 mph 0.09 in Rain Rain
7:45 AM 46.4 °F 38.5 °F 44.6 °F 93% 29.71 in 10.0 mi West 21.9 mph 28.8 mph 0.10 in Rain Light Rain
7:54 AM 46.0 °F 38.3 °F 44.1 °F 93% 29.70 in 9.0 mi West 20.7 mph 28.8 mph 0.10 in Rain Light Rain
8:54 AM 45.0 °F 37.6 °F 43.0 °F 93% 29.74 in 8.0 mi West 17.3 mph - 0.00 in Rain Light Rain
9:54 AM 43.0 °F 35.7 °F 39.9 °F 89% 29.79 in 10.0 mi West 15.0 mph 24.2 mph 0.00 in   Overcast
10:34 AM 42.8 °F 34.8 °F 37.4 °F 81% 29.82 in 10.0 mi West 17.3 mph 28.8 mph N/A   Overcast
10:54 AM 43.0 °F 34.8 °F 36.0 °F 76% 29.81 in 10.0 mi West 18.4 mph 31.1 mph N/A   Overcast
11:27 AM 44.6 °F 37.2 °F 37.4 °F 76% 29.84 in 10.0 mi West 17.3 mph 26.5 mph N/A   Overcast
11:54 AM 43.0 °F 36.0 °F 37.0 °F 80% 29.83 in 10.0 mi West 13.8 mph 23.0 mph N/A   Overcast
12:54 PM 43.0 °F 34.5 °F 35.1 °F 74% 29.85 in 10.0 mi WSW 19.6 mph 27.6 mph N/A   Overcast
1:54 PM 43.0 °F 36.0 °F 35.1 °F 74% 29.87 in 10.0 mi WSW 13.8 mph 25.3 mph N/A   Overcast
2:42 PM 46.4 °F 40.1 °F 35.6 °F 66% 29.88 in 10.0 mi WSW 15.0 mph 24.2 mph N/A   Overcast
2:54 PM 46.0 °F 38.8 °F 34.0 °F 63% 29.86 in 10.0 mi West 18.4 mph 25.3 mph N/A   Overcast
3:54 PM 46.0 °F 39.6 °F 33.1 °F 61% 29.88 in 10.0 mi WSW 15.0 mph 21.9 mph N/A   Overcast
4:54 PM 46.0 °F 39.6 °F 33.1 °F 61% 29.88 in 10.0 mi WSW 15.0 mph 20.7 mph N/A   Overcast
5:54 PM 45.0 °F 39.3 °F 33.1 °F 63% 29.91 in 10.0 mi WSW 11.5 mph - N/A   Overcast
6:54 PM 45.0 °F 38.9 °F 33.1 °F 63% 29.94 in 10.0 mi West 12.7 mph 19.6 mph N/A   Overcast
7:54 PM 44.1 °F 37.7 °F 33.1 °F 65% 29.96 in 10.0 mi West 12.7 mph - N/A   Overcast
8:54 PM 43.0 °F 37.2 °F 32.0 °F 65% 30.00 in 10.0 mi West 10.4 mph - N/A   Overcast
9:54 PM 43.0 °F 35.7 °F 32.0 °F 65% 30.03 in 10.0 mi West 15.0 mph 23.0 mph N/A   Overcast
10:54 PM 41.0 °F 34.7 °F 32.0 °F 70% 30.06 in 10.0 mi WSW 10.4 mph - N/A   Partly Cloudy
11:54 PM 37.9 °F 32.1 °F 32.0 °F 79% 30.07 in 10.0 mi SSW 8.1 mph - N/A   Clear